Location: Unspecified
(0.0000°N, 0.0000°E)
Time: 13:07:13
(UTC+00:00)

Kosmos-1333 - Pass Details

Date: 26 May 2026
Orbit: 964 x 1010 km, 82.9° (Epoch: 5 June)

Event Time Altitude Azimuth Distance (km) Brightness Sun altitude
Rises 20:11:30 0° 198° (SSW) 3,690 10.0 -31.0°
Reaches altitude 10° 20:14:09 10° 205° (SSW) 2,747 9.3 -31.6°
Maximum altitude 20:20:00 41° 273° (W) 1,414 8.1 -33.0°
Drops below altitude 10° 20:25:53 10° 341° (NNW) 2,765 9.8 -34.3°
Sets 20:28:35 0° 349° (NNW) 3,717 10.5 -34.9°
